• în Republica Moldova
  • Lista ţărilor
  • Pe 7 zile
  • Temperatura apei
  • Hartă satelitară
  • Meteo pe hartă
  • Widget-uri
  • user-avatar
    Intrare

    Meteo pe oră la Malanje

    Astăzi, 22 August, Marţi

    Timp Temperatura Precipitaţii Vânt Presiune Umiditate
    00:00 +23°C° 0 mm 2 m/s 665 mmHg 53%
    01:00 +20°C° 0 mm 2 m/s 665 mmHg 66%
    02:00 +21°C° 0 mm 1 m/s 665 mmHg 70%
    03:00 +20°C° 0 mm 1 m/s 664 mmHg 74%
    04:00 +19°C° 0 mm 1 m/s 664 mmHg 79%
    05:00 +20°C° 0 mm 1 m/s 665 mmHg 76%
    06:00 +20°C° 0 mm 1 m/s 665 mmHg 74%
    07:00 +21°C° 0 mm 1 m/s 666 mmHg 59%
    08:00 +24°C° 0 mm 2 m/s 666 mmHg 45%
    09:00 +27°C° 0 mm 3 m/s 667 mmHg 30%
    10:00 +31°C° 0 mm 3 m/s 668 mmHg 16%
    11:00 +33°C° 0 mm 3 m/s 668 mmHg 14%
    12:00 +35°C° 0 mm 3 m/s 667 mmHg 13%
    13:00 +35°C° 0 mm 3 m/s 667 mmHg 13%
    14:00 +35°C° 0 mm 3 m/s 666 mmHg 12%
    15:00 +35°C° 0 mm 2 m/s 666 mmHg 11%
    16:00 +35°C° 0 mm 2 m/s 665 mmHg 11%
    17:00 +32°C° 0 mm 2 m/s 665 mmHg 12%
    18:00 +30°C° 0 mm 1 m/s 665 mmHg 14%
    19:00 +28°C° 0 mm 1 m/s 664 mmHg 15%
    20:00 +27°C° 0 mm 1 m/s 665 mmHg 16%
    21:00 +26°C° 0 mm 1 m/s 665 mmHg 17%
    22:00 +23°C° 0 mm 0 m/s 665 mmHg 18%
    23:00 +24°C° 0 mm 1 m/s 665 mmHg 24%

    Mâine, 23 August, Miercuri

    Timp Temperatura Precipitaţii Vânt Presiune Umiditate
    00:00 +23°C° 0 mm 1 m/s 665 mmHg 31%
    01:00 +22°C° 0 mm 1 m/s 664 mmHg 37%
    02:00 +21°C° 0 mm 1 m/s 664 mmHg 47%
    03:00 +20°C° 0 mm 1 m/s 664 mmHg 57%
    04:00 +19°C° 0 mm 1 m/s 664 mmHg 67%
    05:00 +19°C° 0 mm 1 m/s 664 mmHg 69%
    06:00 +19°C° 0 mm 1 m/s 665 mmHg 71%
    07:00 +19°C° 0 mm 1 m/s 665 mmHg 74%
    08:00 +24°C° 0 mm 1 m/s 666 mmHg 57%
    09:00 +28°C° 0 mm 1 m/s 667 mmHg 41%
    10:00 +32°C° 0 mm 1 m/s 668 mmHg 25%
    11:00 +33°C° 0 mm 1 m/s 668 mmHg 20%
    12:00 +35°C° 0 mm 1 m/s 667 mmHg 16%
    13:00 +38°C° 0 mm 2 m/s 667 mmHg 12%
    14:00 +37°C° 0 mm 2 m/s 666 mmHg 12%
    15:00 +37°C° 0 mm 2 m/s 665 mmHg 12%
    16:00 +37°C° 0 mm 2 m/s 665 mmHg 12%
    17:00 +34°C° 0 mm 2 m/s 664 mmHg 15%
    18:00 +31°C° 0 mm 2 m/s 664 mmHg 18%
    19:00 +29°C° 0 mm 2 m/s 664 mmHg 22%
    20:00 +28°C° 0 mm 3 m/s 665 mmHg 30%
    21:00 +26°C° 0 mm 3 m/s 665 mmHg 38%
    22:00 +25°C° 0 mm 4 m/s 665 mmHg 47%
    23:00 +23°C° 0 mm 4 m/s 665 mmHg 53%

    Poimâine, 24 August, Joi

    Timp Temperatura Precipitaţii Vânt Presiune Umiditate
    00:00 +21°C° 0 mm 3 m/s 665 mmHg 60%
    01:00 +20°C° 0 mm 3 m/s 664 mmHg 67%
    02:00 +20°C° 0 mm 3 m/s 664 mmHg 71%
    03:00 +19°C° 0 mm 3 m/s 664 mmHg 76%
    04:00 +18°C° 0 mm 3 m/s 664 mmHg 80%
    05:00 +18°C° 0 mm 3 m/s 664 mmHg 80%
    06:00 +18°C° 0 mm 2 m/s 665 mmHg 80%
    07:00 +18°C° 0 mm 2 m/s 665 mmHg 80%
    08:00 +21°C° 0 mm 2 m/s 666 mmHg 67%
    09:00 +25°C° 0 mm 3 m/s 667 mmHg 53%
    10:00 +28°C° 0 mm 3 m/s 667 mmHg 40%
    11:00 +30°C° 0 mm 3 m/s 667 mmHg 34%
    12:00 +32°C° 0 mm 2 m/s 667 mmHg 27%
    13:00 +36°C° 0 mm 2 m/s 666 mmHg 21%
    14:00 +35°C° 0 mm 2 m/s 665 mmHg 20%
    15:00 +35°C° 0 mm 2 m/s 665 mmHg 20%
    16:00 +35°C° 0 mm 3 m/s 664 mmHg 19%
    17:00 +33°C° 0 mm 3 m/s 664 mmHg 23%
    18:00 +30°C° 0 mm 4 m/s 664 mmHg 28%
    19:00 +28°C° 0 mm 4 m/s 665 mmHg 32%
    20:00 +27°C° 0 mm 4 m/s 665 mmHg 37%
    21:00 +26°C° 0 mm 4 m/s 665 mmHg 41%
    22:00 +23°C° 0 mm 4 m/s 665 mmHg 46%
    23:00 +22°C° 0 mm 4 m/s 665 mmHg 53%

    25 August, Vineri

    Timp Temperatura Precipitaţii Vânt Presiune Umiditate
    00:00 +21°C° 0 mm 4 m/s 665 mmHg 60%
    01:00 +20°C° 0 mm 4 m/s 664 mmHg 67%
    02:00 +19°C° 0 mm 4 m/s 664 mmHg 69%
    03:00 +19°C° 0 mm 4 m/s 664 mmHg 71%
    04:00 +18°C° 0 mm 3 m/s 663 mmHg 73%
    05:00 +18°C° 0 mm 3 m/s 664 mmHg 73%
    06:00 +18°C° 0 mm 3 m/s 664 mmHg 72%
    07:00 +18°C° 0 mm 3 m/s 665 mmHg 71%
    08:00 +21°C° 0 mm 3 m/s 665 mmHg 59%
    09:00 +25°C° 0 mm 3 m/s 666 mmHg 46%
    10:00 +28°C° 0 mm 3 m/s 667 mmHg 33%
    11:00 +31°C° 0 mm 2 m/s 667 mmHg 28%
    12:00 +35°C° 0 mm 2 m/s 666 mmHg 23%
    13:00 +37°C° 0 mm 2 m/s 666 mmHg 18%
    14:00 +37°C° 0 mm 2 m/s 665 mmHg 18%
    15:00 +36°C° 0 mm 2 m/s 664 mmHg 18%
    16:00 +36°C° 0 mm 3 m/s 664 mmHg 18%
    17:00 +33°C° 0 mm 3 m/s 664 mmHg 24%
    18:00 +30°C° 0 mm 3 m/s 664 mmHg 30%
    19:00 +27°C° 0 mm 4 m/s 663 mmHg 36%
    20:00 +26°C° 0 mm 4 m/s 664 mmHg 40%
    21:00 +25°C° 0 mm 4 m/s 664 mmHg 44%
    22:00 +22°C° 0 mm 3 m/s 664 mmHg 48%
    23:00 +22°C° 0 mm 3 m/s 664 mmHg 50%

    26 August, Sâmbătă

    Timp Temperatura Precipitaţii Vânt Presiune Umiditate
    00:00 +21°C° 0 mm 3 m/s 663 mmHg 53%
    01:00 +20°C° 0 mm 3 m/s 663 mmHg 56%
    02:00 +19°C° 0 mm 3 m/s 663 mmHg 60%
    03:00 +19°C° 0 mm 3 m/s 663 mmHg 64%
    04:00 +18°C° 0 mm 3 m/s 663 mmHg 68%
    05:00 +18°C° 0 mm 3 m/s 663 mmHg 70%
    06:00 +18°C° 0 mm 3 m/s 664 mmHg 71%
    07:00 +18°C° 0 mm 3 m/s 664 mmHg 73%
    08:00 +21°C° 0 mm 2 m/s 665 mmHg 60%
    09:00 +25°C° 0 mm 2 m/s 666 mmHg 47%
    10:00 +29°C° 0 mm 2 m/s 666 mmHg 34%
    11:00 +31°C° 0 mm 2 m/s 666 mmHg 29%
    12:00 +35°C° 0 mm 2 m/s 666 mmHg 23%
    13:00 +37°C° 0 mm 2 m/s 665 mmHg 18%
    14:00 +37°C° 0 mm 2 m/s 665 mmHg 18%
    15:00 +37°C° 0 mm 2 m/s 664 mmHg 17%
    16:00 +36°C° 0 mm 2 m/s 664 mmHg 17%
    17:00 +33°C° 0 mm 3 m/s 664 mmHg 23%
    18:00 +29°C° 0 mm 4 m/s 664 mmHg 30%
    19:00 +27°C° 0 mm 4 m/s 664 mmHg 37%
    20:00 +25°C° 0 mm 4 m/s 664 mmHg 43%
    21:00 +23°C° 0 mm 4 m/s 664 mmHg 49%
    22:00 +21°C° 0 mm 4 m/s 664 mmHg 54%
    23:00 +20°C° 0 mm 4 m/s 664 mmHg 61%

    27 August, Duminică

    Timp Temperatura Precipitaţii Vânt Presiune Umiditate
    00:00 +19°C° 0 mm 4 m/s 663 mmHg 68%
    01:00 +18°C° 0 mm 4 m/s 663 mmHg 75%
    02:00 +17°C° 0 mm 4 m/s 663 mmHg 77%
    03:00 +15°C° 0 mm 4 m/s 663 mmHg 80%
    04:00 +16°C° 0 mm 3 m/s 663 mmHg 82%
    05:00 +16°C° 0 mm 3 m/s 664 mmHg 81%
    06:00 +16°C° 0 mm 3 m/s 664 mmHg 79%
    07:00 +16°C° 0 mm 3 m/s 665 mmHg 78%
    08:00 +19°C° 0 mm 3 m/s 665 mmHg 65%
    09:00 +24°C° 0 mm 3 m/s 666 mmHg 51%
    10:00 +27°C° 0 mm 2 m/s 667 mmHg 37%
    11:00 +30°C° 0 mm 2 m/s 666 mmHg 32%
    12:00 +32°C° 0 mm 2 m/s 666 mmHg 26%
    13:00 +35°C° 0 mm 2 m/s 666 mmHg 20%
    14:00 +35°C° 0 mm 2 m/s 665 mmHg 20%
    15:00 +35°C° 0 mm 2 m/s 665 mmHg 20%
    16:00 +35°C° 0 mm 3 m/s 664 mmHg 19%
    17:00 +33°C° 0 mm 3 m/s 664 mmHg 23%
    18:00 +30°C° 0 mm 3 m/s 664 mmHg 28%
    19:00 +28°C° 0 mm 3 m/s 665 mmHg 32%
    20:00 +26°C° 0 mm 3 m/s 665 mmHg 36%
    21:00 +25°C° 0 mm 3 m/s 665 mmHg 40%
    22:00 +22°C° 0 mm 3 m/s 665 mmHg 44%
    23:00 +21°C° 0 mm 3 m/s 664 mmHg 51%
    Arată mai mult